• In Deutschland
  • Länderverzeichnis
  • Für 7 Tage
  • Wassertemperatur
  • Satellitenkarten
  • Wetterkarte
  • Widgets
  • user-avatar
    Anmelden

    Stündliche Wetter Chien

    Heute, 24 September, Sonntag

    Zeit Temperatur Niederschläge Wind Luftdruck Luftfeuchtigkeit
    00:00 +21°C° 0 mm 0 m/S 742 mmHg 97%
    01:00 +21°C° 0 mm 0 m/S 742 mmHg 98%
    02:00 +20°C° 0 mm 0 m/S 742 mmHg 98%
    03:00 +20°C° 0 mm 0 m/S 742 mmHg 99%
    04:00 +20°C° 0 mm 0 m/S 742 mmHg 99%
    05:00 +20°C° 0 mm 0 m/S 742 mmHg 99%
    06:00 +22°C° 0 mm 0 m/S 742 mmHg 92%
    07:00 +23°C° 0 mm 0 m/S 742 mmHg 84%
    08:00 +27°C° 0 mm 1 m/S 743 mmHg 77%
    09:00 +29°C° 0 mm 1 m/S 742 mmHg 68%
    10:00 +31°C° 0 mm 1 m/S 742 mmHg 59%
    11:00 +34°C° 0 mm 1 m/S 742 mmHg 51%
    12:00 +34°C° 0 mm 1 m/S 741 mmHg 51%
    13:00 +33°C° 0 mm 1 m/S 741 mmHg 51%
    14:00 +33°C° 0 mm 1 m/S 740 mmHg 52%
    15:00 +32°C° 0,3 mm 1 m/S 740 mmHg 60%
    16:00 +30°C° 0,3 mm 1 m/S 740 mmHg 69%
    17:00 +28°C° 0,3 mm 1 m/S 739 mmHg 78%
    18:00 +27°C° 0,2 mm 1 m/S 740 mmHg 83%
    19:00 +26°C° 0,2 mm 1 m/S 741 mmHg 89%
    20:00 +25°C° 0,2 mm 1 m/S 741 mmHg 94%
    21:00 +24°C° 0,1 mm 1 m/S 741 mmHg 95%
    22:00 +24°C° 0,1 mm 1 m/S 741 mmHg 96%
    23:00 +24°C° 0,1 mm 1 m/S 741 mmHg 97%

    Morgen, 25 September, Montag

    Zeit Temperatur Niederschläge Wind Luftdruck Luftfeuchtigkeit
    00:00 +23°C° 0,1 mm 1 m/S 741 mmHg 98%
    01:00 +23°C° 0,1 mm 1 m/S 741 mmHg 98%
    02:00 +23°C° 0,1 mm 1 m/S 740 mmHg 98%
    03:00 +23°C° 0,8 mm 1 m/S 741 mmHg 98%
    04:00 +23°C° 0,8 mm 1 m/S 741 mmHg 98%
    05:00 +23°C° 0,8 mm 1 m/S 741 mmHg 98%
    06:00 +24°C° 0,4 mm 1 m/S 741 mmHg 97%
    07:00 +24°C° 0,4 mm 1 m/S 742 mmHg 96%
    08:00 +25°C° 0,4 mm 1 m/S 742 mmHg 95%
    09:00 +26°C° 0,1 mm 1 m/S 742 mmHg 89%
    10:00 +27°C° 0,1 mm 1 m/S 742 mmHg 83%
    11:00 +29°C° 0,1 mm 1 m/S 742 mmHg 76%
    12:00 +29°C° 0,1 mm 1 m/S 741 mmHg 73%
    13:00 +30°C° 0,1 mm 1 m/S 740 mmHg 69%
    14:00 +31°C° 0,1 mm 1 m/S 739 mmHg 66%
    15:00 +30°C° 0,1 mm 1 m/S 739 mmHg 71%
    16:00 +29°C° 0,1 mm 1 m/S 739 mmHg 76%
    17:00 +28°C° 0,1 mm 1 m/S 739 mmHg 82%
    18:00 +27°C° 0 mm 1 m/S 740 mmHg 86%
    19:00 +26°C° 0 mm 1 m/S 740 mmHg 90%
    20:00 +25°C° 0 mm 2 m/S 741 mmHg 94%
    21:00 +25°C° 0 mm 2 m/S 741 mmHg 94%
    22:00 +25°C° 0 mm 2 m/S 741 mmHg 95%
    23:00 +25°C° 0 mm 2 m/S 741 mmHg 95%

    übermorgen, 26 September, Dienstag

    Zeit Temperatur Niederschläge Wind Luftdruck Luftfeuchtigkeit
    00:00 +24°C° 1 mm 1 m/S 741 mmHg 96%
    01:00 +24°C° 1 mm 1 m/S 740 mmHg 97%
    02:00 +24°C° 1 mm 1 m/S 740 mmHg 98%
    03:00 +24°C° 0,6 mm 1 m/S 740 mmHg 98%
    04:00 +24°C° 0,6 mm 1 m/S 740 mmHg 98%
    05:00 +24°C° 0,6 mm 1 m/S 740 mmHg 98%
    06:00 +24°C° 0,3 mm 1 m/S 741 mmHg 97%
    07:00 +25°C° 0,3 mm 1 m/S 741 mmHg 96%
    08:00 +25°C° 0,3 mm 1 m/S 741 mmHg 94%
    09:00 +28°C° 0,1 mm 1 m/S 741 mmHg 83%
    10:00 +30°C° 0,1 mm 1 m/S 741 mmHg 72%
    11:00 +32°C° 0,1 mm 1 m/S 740 mmHg 61%
    12:00 +32°C° 0,6 mm 1 m/S 740 mmHg 63%
    13:00 +32°C° 0,6 mm 1 m/S 739 mmHg 64%
    14:00 +31°C° 0,6 mm 1 m/S 738 mmHg 66%
    15:00 +30°C° 0,8 mm 1 m/S 738 mmHg 75%
    16:00 +28°C° 0,8 mm 1 m/S 738 mmHg 84%
    17:00 +27°C° 0,8 mm 2 m/S 738 mmHg 93%
    18:00 +26°C° 1 mm 2 m/S 739 mmHg 94%
    19:00 +26°C° 1 mm 2 m/S 740 mmHg 95%
    20:00 +25°C° 1 mm 2 m/S 740 mmHg 97%
    21:00 +25°C° 0,2 mm 2 m/S 741 mmHg 97%
    22:00 +25°C° 0,2 mm 2 m/S 741 mmHg 97%
    23:00 +25°C° 0,2 mm 2 m/S 741 mmHg 97%

    27 September, Mittwoch

    Zeit Temperatur Niederschläge Wind Luftdruck Luftfeuchtigkeit
    00:00 +24°C° 0 mm 1 m/S 740 mmHg 98%
    01:00 +24°C° 0 mm 1 m/S 740 mmHg 98%
    02:00 +24°C° 0 mm 1 m/S 739 mmHg 98%
    03:00 +24°C° 0,1 mm 1 m/S 739 mmHg 98%
    04:00 +24°C° 0,1 mm 1 m/S 740 mmHg 98%
    05:00 +22°C° 0,1 mm 0 m/S 740 mmHg 99%
    06:00 +25°C° 0,6 mm 1 m/S 740 mmHg 96%
    07:00 +26°C° 0,6 mm 1 m/S 741 mmHg 92%
    08:00 +27°C° 0,6 mm 1 m/S 741 mmHg 89%
    09:00 +29°C° 0,6 mm 1 m/S 741 mmHg 79%
    10:00 +32°C° 0,6 mm 1 m/S 740 mmHg 69%
    11:00 +32°C° 0,6 mm 0 m/S 740 mmHg 58%
    12:00 +33°C° 0,8 mm 1 m/S 739 mmHg 59%
    13:00 +33°C° 0,8 mm 1 m/S 739 mmHg 60%
    14:00 +33°C° 0,8 mm 1 m/S 738 mmHg 61%
    15:00 +31°C° 1,1 mm 1 m/S 738 mmHg 72%
    16:00 +29°C° 1,1 mm 1 m/S 738 mmHg 83%
    17:00 +27°C° 1,1 mm 2 m/S 739 mmHg 94%
    18:00 +26°C° 0,2 mm 2 m/S 739 mmHg 95%
    19:00 +26°C° 0,2 mm 1 m/S 740 mmHg 96%
    20:00 +25°C° 0,2 mm 1 m/S 741 mmHg 97%
    21:00 +25°C° 0 mm 1 m/S 741 mmHg 98%
    22:00 +25°C° 0 mm 1 m/S 741 mmHg 98%
    23:00 +25°C° 0 mm 1 m/S 741 mmHg 98%

    28 September, Donnerstag

    Zeit Temperatur Niederschläge Wind Luftdruck Luftfeuchtigkeit
    00:00 +24°C° 0,2 mm 1 m/S 740 mmHg 98%
    01:00 +24°C° 0,2 mm 1 m/S 740 mmHg 98%
    02:00 +22°C° 0,2 mm 0 m/S 740 mmHg 98%
    03:00 +22°C° 0,1 mm 0 m/S 740 mmHg 98%
    04:00 +22°C° 0,1 mm 0 m/S 740 mmHg 99%
    05:00 +22°C° 0,1 mm 0 m/S 740 mmHg 99%
    06:00 +23°C° 0,5 mm 0 m/S 741 mmHg 95%
    07:00 +24°C° 0,5 mm 0 m/S 741 mmHg 92%
    08:00 +27°C° 0,5 mm 1 m/S 742 mmHg 89%
    09:00 +29°C° 0,8 mm 1 m/S 741 mmHg 83%
    10:00 +28°C° 0,8 mm 0 m/S 741 mmHg 78%
    11:00 +29°C° 0,8 mm 0 m/S 740 mmHg 72%
    12:00 +31°C° 1,4 mm 1 m/S 740 mmHg 74%
    13:00 +31°C° 1,4 mm 1 m/S 739 mmHg 76%
    14:00 +30°C° 1,4 mm 1 m/S 738 mmHg 78%
    15:00 +29°C° 1,1 mm 1 m/S 739 mmHg 84%
    16:00 +28°C° 1,1 mm 1 m/S 739 mmHg 90%
    17:00 +26°C° 1,1 mm 1 m/S 739 mmHg 95%
    18:00 +26°C° 0,5 mm 1 m/S 740 mmHg 96%
    19:00 +25°C° 0,5 mm 1 m/S 740 mmHg 97%
    20:00 +25°C° 0,5 mm 1 m/S 741 mmHg 97%
    21:00 +24°C° 0 mm 1 m/S 741 mmHg 98%
    22:00 +24°C° 0 mm 1 m/S 741 mmHg 98%
    23:00 +24°C° 0 mm 1 m/S 741 mmHg 99%

    29 September, Freitag

    Zeit Temperatur Niederschläge Wind Luftdruck Luftfeuchtigkeit
    00:00 +24°C° 0 mm 1 m/S 740 mmHg 99%
    01:00 +24°C° 0 mm 1 m/S 740 mmHg 99%
    02:00 +22°C° 0 mm 0 m/S 740 mmHg 99%
    03:00 +22°C° 0 mm 0 m/S 740 mmHg 99%
    04:00 +22°C° 0 mm 0 m/S 740 mmHg 99%
    05:00 +22°C° 0 mm 0 m/S 740 mmHg 98%
    06:00 +23°C° 0 mm 0 m/S 741 mmHg 94%
    07:00 +24°C° 0 mm 0 m/S 741 mmHg 90%
    08:00 +25°C° 0 mm 0 m/S 741 mmHg 86%
    09:00 +27°C° 0,2 mm 0 m/S 741 mmHg 77%
    10:00 +29°C° 0,2 mm 0 m/S 740 mmHg 68%
    11:00 +31°C° 0,2 mm 0 m/S 740 mmHg 59%
    12:00 +32°C° 1,2 mm 1 m/S 739 mmHg 65%
    13:00 +31°C° 1,2 mm 1 m/S 738 mmHg 72%
    14:00 +30°C° 1,2 mm 2 m/S 738 mmHg 78%
    15:00 +29°C° 2,1 mm 2 m/S 738 mmHg 84%
    16:00 +27°C° 2,1 mm 2 m/S 738 mmHg 89%
    17:00 +26°C° 2,1 mm 2 m/S 739 mmHg 95%
    18:00 +25°C° 1,1 mm 2 m/S 739 mmHg 96%
    19:00 +25°C° 1,1 mm 1 m/S 740 mmHg 97%
    20:00 +25°C° 1,1 mm 1 m/S 741 mmHg 97%
    21:00 +24°C° 0 mm 1 m/S 741 mmHg 98%
    22:00 +24°C° 0 mm 1 m/S 740 mmHg 98%
    23:00 +22°C° 0 mm 0 m/S 740 mmHg 98%
    Mehr zeigen